Regional Weather Roundup
Issued by NWS

Home | Current Version | Previous Version | Graphics & Text | Print | Product List | Glossary On
Versions: 1 2 3 4 5 6 7 8 9 10 11 12 13 14 15 16 17 18 19 20 21 22 23 24 25 26 27 28 29 30 31 32 33 34 35 36 37 38 39 40 41 42 43 44 45 46 47 48 49 50
046
ASUS43 KBIS 022102
RWRND

NORTH DAKOTA REGIONAL WEATHER ROUNDUP
NATIONAL WEATHER SERVICE BISMARCK ND
300 PM CST FRI DEC 02 2016

NOTE: "FAIR" INDICATES FEW OR NO CLOUDS BELOW 12,000 FEET WITH NO
SIGNIFICANT WEATHER AND/OR OBSTRUCTIONS TO VISIBILITY.


NDZ001>003-009>011-017-022200-
NORTHWEST NORTH DAKOTA

CITY           SKY/WX    TMP DP  RH WIND       PRES   REMARKS
WILLISTON      CLOUDY    31  25  78 SW7       30.15F
MINOT          CLOUDY    29  24  82 S12       30.17F WCI  19
MINOT AFB      CLOUDY    29  24  83 S9        30.17S
$$

NDZ018>021-031>035-040>046-022200-
SOUTHWEST NORTH DAKOTA

CITY           SKY/WX    TMP DP  RH WIND       PRES   REMARKS
BISMARCK       CLOUDY    26  20  77 S7        30.25R WCI  18
DICKINSON      CLOUDY    28  24  85 W3        30.14S
GARRISON         N/A     27  22  81 S12       30.18F WCI  17
HETTINGER ARPT SUNNY     31  25  78 W7        30.17F
$$

NDZ004>008-012>016-024-026-027-054-022200-
NORTHEAST NORTH DAKOTA

CITY           SKY/WX    TMP DP  RH WIND       PRES   REMARKS
GRAND FORKS    CLOUDY    33  21  61 NW9       30.25F
GRND FRKS AFB  CLOUDY    31  21  64 VRB2      30.25S
DEVILS LAKE    CLOUDY    30  20  66 SW5       30.23S
$$

NDZ022-023-025-028>030-036>039-047>053-022200-
SOUTHEAST NORTH DAKOTA

CITY           SKY/WX    TMP DP  RH WIND       PRES   REMARKS
FARGO          CLOUDY    31  21  66 NW7       30.27R
JAMESTOWN      CLOUDY    27  20  75 W7        30.24S WCI  19
$$





USA.gov is the U.S. government's official web portal to all federal, state and local government web resources and services.